Theta_e
311 310 311 311 312 314 316 316 315 316 316 317 311 308 306 305 300 296 295 297 296 302 303 300 303 306 307 308 309 309 307 309 310 307 305 302 300 304 305 304 304 304 303 302 302 300 301 302 304 304 304 304 304 303 304 304 304 304 304 304 305 306 307 306 307 310 312 313 312 310 310 310 311 311
313 313 313 312 311 312 311 312 311 311 312 312 312 311 310 307 302 299 297 299 301 298 302 301 300 304 306 306 306 306 306 312 311 309 310 305 302 304 305 304 302 302 302 301 301 300 301 302 305 304 303 303 303 304 304 304 304 303 303 303 304 306 307 306 307 310 311 311 310 309 308 309 309 309
314 313 313 313 313 312 310 311 312 313 312 311 312 310 312 309 305 303 301 298 302 301 300 303 303 302 303 303 300 301 300 307 308 308 309 307 305 307 304 304 303 302 303 301 300 301 302 302 303 303 305 304 303 303 302 303 303 303 302 302 303 305 306 305 305 308 309 309 308 308 307 307 307 307
313 311 311 311 311 310 311 311 311 311 312 312 311 311 309 308 307 305 302 299 300 305 301 301 302 303 303 302 300 300 302 304 309 305 308 308 308 304 301 303 304 303 303 302 301 304 307 303 303 303 302 300 301 302 300 302 302 301 301 300 301 304 305 304 303 306 306 307 307 306 306 306 306 307
312 312 311 311 311 311 310 309 310 310 310 311 311 311 310 307 306 305 302 300 300 303 306 304 304 305 304 302 301 300 300 301 302 305 304 307 303 301 301 300 302 303 303 301 301 302 301 299 300 300 299 299 299 300 300 301 301 300 299 300 301 301 301 302 301 302 304 305 305 305 305 305 306 307
314 311 310 311 311 310 310 309 310 310 309 310 310 310 310 308 309 307 304 301 299 300 304 304 305 305 306 303 303 302 302 303 304 303 304 307 303 303 304 300 300 302 302 301 301 302 302 301 300 299 299 299 299 300 299 298 297 299 298 298 299 300 298 299 300 300 302 304 305 304 305 305 306 308
311 310 310 310 311 313 310 309 309 310 310 310 309 309 309 309 309 308 307 304 302 301 302 303 303 303 307 302 304 306 306 306 306 305 304 304 307 307 305 304 303 301 301 301 301 301 301 301 300 299 300 299 298 298 299 298 298 297 297 298 299 298 296 296 297 297 299 301 302 303 303 303 305 308
310 309 309 309 309 309 308 308 309 310 309 309 309 309 309 309 309 310 307 306 303 302 303 303 304 305 304 306 308 305 306 305 305 303 305 307 307 307 308 305 304 302 301 301 301 301 302 301 300 299 299 299 299 299 298 299 298 297 298 298 298 297 296 296 296 296 296 298 299 301 300 301 305 307
310 309 308 310 310 308 307 309 308 309 311 312 309 308 308 308 310 311 310 308 308 305 302 304 304 304 306 307 305 304 304 304 304 306 305 305 305 305 306 308 308 305 301 301 301 300 300 299 300 300 300 300 300 299 299 299 299 299 299 299 298 297 297 296 296 296 296 296 297 299 299 299 303 305
310 309 308 310 310 308 307 309 309 311 310 310 309 308 308 311 310 309 307 307 307 307 305 304 305 305 305 305 305 305 303 303 304 303 304 304 305 304 304 305 307 309 306 303 302 302 300 300 300 300 300 300 299 299 300 300 300 299 299 298 298 297 297 297 296 296 296 296 296 297 298 299 302 304
311 311 311 310 310 309 309 310 310 310 310 311 310 310 309 310 309 308 308 307 307 304 303 304 304 304 305 305 303 305 305 305 303 301 299 302 303 302 301 302 304 305 305 303 302 302 302 303 303 301 300 301 302 301 301 301 301 300 298 297 297 297 297 296 297 297 296 296 296 296 296 297 300 302
312 312 312 312 312 312 312 311 310 310 310 310 309 309 309 309 309 308 307 305 305 305 304 303 303 303 303 303 304 307 303 301 301 303 301 299 299 301 300 301 301 302 302 301 302 303 302 301 301 300 301 301 301 302 302 302 301 300 299 297 297 297 296 297 297 297 297 297 296 296 296 295 296 299
312 312 313 313 312 316 319 313 312 313 313 311 308 306 308 308 307 307 307 307 305 303 304 303 302 301 301 301 301 300 299 299 299 300 299 298 299 299 299 300 300 301 298 299 299 299 300 299 299 299 299 300 302 302 303 302 302 300 298 297 297 297 297 297 297 297 297 297 297 296 296 295 295 295
311 314 312 314 321 316 310 305 301 301 304 308 308 306 307 308 308 307 306 305 306 304 302 302 300 301 300 300 300 300 300 301 300 299 298 297 297 296 297 297 297 300 299 298 297 297 299 299 298 299 299 301 302 302 301 301 300 300 298 298 298 297 297 297 297 297 297 297 297 296 296 296 296 295
313 312 312 310 311 311 310 304 298 298 297 297 297 298 302 307 308 308 306 305 304 304 303 303 301 300 300 300 301 299 299 299 298 298 296 296 296 294 293 293 296 298 299 297 295 295 297 298 298 299 300 301 301 302 301 300 301 300 299 298 298 298 297 297 297 297 296 296 296 296 296 295 296 295
313 313 313 311 312 310 309 306 302 299 295 294 293 293 294 294 296 302 305 303 301 301 303 303 302 301 300 299 299 299 297 297 296 296 297 296 295 293 292 292 292 296 298 295 294 294 297 297 298 298 300 301 301 302 299 298 299 299 299 298 298 297 297 297 297 297 296 296 295 295 295 295 295 294
312 312 313 314 314 317 315 312 308 304 300 295 294 294 294 294 293 294 297 299 303 304 304 303 301 301 300 299 299 300 298 298 296 294 294 293 292 292 291 291 292 295 296 294 292 291 295 296 296 296 299 299 299 300 298 298 298 299 299 298 298 297 297 297 297 296 296 295 295 295 295 295 294 294
312 310 311 312 312 313 314 312 311 308 304 300 299 299 299 297 295 293 293 294 297 302 305 305 303 303 302 300 298 299 298 296 294 292 292 292 291 291 291 292 293 295 297 293 291 290 293 295 295 293 295 297 297 298 297 297 298 298 298 298 297 297 297 297 296 296 296 295 295 295 295 295 294 294
313 313 312 312 313 313 313 314 313 311 307 304 303 301 301 298 298 301 301 303 306 307 306 304 303 301 301 299 297 296 297 297 295 294 293 293 292 292 291 291 291 293 295 294 292 289 291 292 292 293 294 295 295 295 296 297 297 297 297 297 296 297 297 296 296 296 296 296 296 295 294 294 294 293
314 314 314 313 313 314 314 309 303 306 308 306 304 302 301 298 294 292 293 292 298 303 302 300 298 297 297 295 294 295 294 293 293 294 292 292 291 290 289 288 290 290 293 294 292 289 289 292 291 291 292 293 293 293 294 295 297 297 296 296 296 296 296 296 296 296 296 296 296 295 295 294 294 293
314 315 315 314 313 314 314 306 299 300 302 306 304 303 302 299 296 294 294 292 292 293 293 293 292 291 291 291 292 292 293 293 293 290 289 289 289 289 287 288 288 289 290 292 292 290 288 290 290 290 291 292 291 292 293 293 295 296 296 296 296 296 295 295 296 296 296 296 296 295 295 294 293 294
313 314 313 315 315 314 314 301 297 297 304 306 305 303 303 300 297 296 297 296 294 291 291 291 290 290 291 291 291 291 292 293 294 289 290 291 289 289 288 287 287 290 289 290 292 289 287 289 290 289 290 290 291 292 292 292 293 295 294 294 295 295 295 295 295 295 296 296 295 295 294 294 294 293
310 309 309 307 309 312 311 298 296 296 304 309 307 305 303 300 298 298 297 296 294 295 295 294 294 293 292 292 291 293 291 292 295 292 291 291 290 288 288 288 287 287 286 290 292 289 287 288 288 287 287 286 288 289 291 291 292 292 292 293 292 294 295 295 295 295 295 295 295 295 294 294 293 292
304 304 304 302 298 301 300 295 295 294 300 309 308 306 303 302 301 300 297 296 296 295 295 294 294 295 293 292 293 292 290 292 295 290 293 293 292 291 287 288 286 286 286 289 291 288 287 287 287 288 287 285 282 286 289 289 290 291 291 291 290 293 294 294 293 294 294 294 294 294 294 294 294 291
304 301 299 298 296 295 293 293 294 296 297 300 307 306 305 304 301 298 298 298 297 297 294 294 294 294 295 293 293 293 292 291 291 291 291 292 292 291 289 288 287 286 287 290 293 289 287 287 287 285 286 285 287 287 287 289 290 289 291 290 290 291 291 291 292 291 293 293 293 293 293 294 294 293
304 301 299 298 295 293 293 293 293 293 293 294 299 298 294 293 294 299 298 298 296 295 293 292 292 292 291 291 292 292 293 293 293 291 290 291 290 289 289 289 288 286 287 290 293 290 288 286 286 287 287 285 286 286 287 287 289 289 289 290 290 290 291 290 289 290 291 291 292 292 292 293 293 294
302 299 298 296 292 291 291 291 291 291 291 292 292 291 292 293 294 296 296 295 295 292 292 292 291 290 290 291 290 291 292 293 292 291 291 292 290 291 291 291 289 289 289 290 293 291 289 286 286 287 287 288 287 288 289 288 288 288 289 288 289 290 291 289 290 290 291 291 293 293 293 292 292 292
300 297 295 293 290 291 291 290 290 290 291 290 289 290 291 292 293 295 294 292 293 290 289 290 289 290 289 289 290 290 291 291 290 290 291 290 290 290 291 290 291 290 290 291 291 291 289 288 289 290 290 289 289 288 287 288 287 286 288 289 290 290 289 290 289 290 291 292 292 292 291 291 292 292
299 294 291 290 290 290 289 289 289 289 289 289 289 290 292 295 293 294 292 293 293 290 288 289 290 290 290 290 291 291 290 290 290 290 291 290 290 289 288 288 289 288 291 291 290 290 291 291 291 292 291 291 289 290 289 288 288 287 287 289 289 288 289 290 290 290 292 293 292 292 291 291 291 292
291 290 289 289 289 289 289 290 289 288 289 289 290 291 293 293 292 291 291 291 290 289 288 288 288 288 288 289 289 289 290 290 289 288 288 288 287 288 288 287 288 288 289 290 291 291 291 292 291 291 291 291 291 290 290 288 287 287 287 288 290 290 288 289 291 292 292 291 292 292 292 292 292 291
291 290 291 291 290 290 290 289 289 289 289 290 291 292 291 291 290 290 289 289 289 288 287 287 287 287 288 289 289 287 288 288 287 288 287 286 286 288 285 286 286 287 289 290 292 293 293 293 293 292 289 289 290 290 290 290 288 288 288 289 290 287 290 292 292 292 292 292 291 291 291 291 290 291
293 293 290 290 291 290 289 289 289 289 289 289 289 290 289 288 289 291 291 291 289 288 287 286 285 285 288 287 286 287 287 285 286 286 287 286 286 285 286 285 284 286 289 290 291 292 291 292 291 291 291 290 289 290 290 289 289 289 289 289 290 291 291 291 291 291 292 291 289 287 287 287 288 289
293 293 293 290 289 288 287 287 288 289 289 288 291 294 292 290 290 289 288 289 288 287 286 286 286 284 286 286 285 285 286 286 286 285 285 284 286 284 286 285 286 286 286 287 287 288 289 289 291 291 291 291 291 291 290 288 289 290 289 290 290 290 290 290 290 291 291 289 288 288 287 288 288 288
291 290 289 289 288 287 287 287 287 288 289 289 288 287 288 288 288 288 287 287 286 286 286 285 286 283 284 283 284 283 283 284 284 285 287 285 284 284 283 283 285 287 286 287 287 287 287 288 289 290 290 289 291 291 291 289 288 290 290 290 289 289 290 291 291 291 290 288 288 287 286 286 288 289
289 289 289 288 287 287 287 287 288 288 288 287 287 287 287 287 287 286 286 284 284 284 284 284 282 282 284 284 282 283 283 283 284 283 284 283 283 285 286 286 286 286 286 286 286 287 288 287 288 287 287 287 287 288 293 293 290 289 288 287 288 288 288 290 290 289 288 287 287 286 286 286 287 289
289 289 290 289 288 288 288 288 288 288 288 288 288 288 288 287 286 286 285 285 285 284 285 282 283 283 282 283 282 281 282 281 282 282 283 283 285 285 286 286 286 285 284 285 286 287 288 288 287 286 285 285 285 285 286 292 292 290 288 286 287 287 288 288 287 286 286 286 285 285 285 285 287 289
288 289 289 289 289 289 289 288 289 289 290 289 288 288 287 286 284 286 287 286 284 284 284 282 283 282 283 282 282 282 281 281 282 281 284 284 285 286 286 285 284 283 282 284 286 287 288 287 287 286 285 284 284 283 285 287 289 291 290 287 287 288 287 287 285 284 285 286 286 286 286 286 285 287
289 289 290 290 291 291 290 289 289 289 288 288 288 286 286 286 286 286 286 286 285 284 283 281 282 282 283 282 282 281 280 281 280 282 284 284 285 285 285 284 283 283 282 283 285 286 287 287 287 286 286 284 283 283 283 286 287 288 291 290 286 286 286 285 285 285 285 284 285 287 287 285 284 285
291 290 289 289 291 292 290 289 289 289 288 287 286 286 286 286 286 286 286 286 285 285 283 283 284 284 283 281 282 281 280 281 282 282 283 284 285 285 284 283 283 284 283 283 284 285 286 286 286 286 286 285 284 284 285 284 285 287 289 290 288 286 286 285 285 286 285 284 284 286 286 287 288 288
292 292 291 291 292 291 290 289 289 289 288 288 287 287 287 286 286 286 286 286 286 285 285 284 283 282 283 282 281 279 280 281 282 282 282 284 284 283 283 283 284 285 284 284 284 285 285 286 287 287 287 287 287 287 287 286 286 287 287 287 289 288 286 286 286 285 284 283 283 283 283 285 285 286
290 292 291 292 292 291 290 289 289 288 288 289 288 287 287 286 286 285 285 285 285 283 282 281 283 283 281 281 282 282 282 281 280 281 281 281 283 284 285 285 285 285 285 285 285 285 286 287 288 287 287 287 287 287 286 285 284 285 286 286 288 289 289 289 287 284 282 283 283 283 282 282 283 284
290 291 292 291 291 291 291 290 290 288 288 287 287 286 286 286 286 287 286 285 284 282 281 282 281 281 281 280 280 281 281 280 279 280 282 283 283 284 285 285 285 285 285 285 285 286 287 289 288 288 288 286 286 285 284 285 284 285 286 286 286 287 288 288 288 287 284 284 283 282 282 282 283 283
288 290 291 290 291 291 291 290 289 288 287 287 286 286 286 285 285 285 282 283 282 282 281 280 281 280 280 280 279 279 279 279 281 284 284 284 285 285 285 285 285 285 285 285 286 286 286 287 287 287 286 286 285 285 284 285 285 285 286 286 286 285 285 287 287 287 287 287 286 285 284 283 281 281
289 290 290 292 291 290 290 289 289 288 287 287 286 285 285 284 283 282 283 284 284 282 282 281 281 280 279 279 279 279 279 280 283 284 285 284 285 285 285 285 285 285 285 286 286 286 286 286 286 286 285 285 285 285 285 285 285 285 285 286 286 285 284 284 283 284 285 286 286 286 286 286 285 285
289 290 289 289 289 289 288 288 288 287 287 286 285 285 285 285 285 285 284 284 283 283 282 282 281 279 279 279 280 280 282 285 283 283 284 285 285 285 285 285 285 285 286 286 285 286 286 286 286 286 285 286 285 284 285 285 286 286 286 286 285 285 285 284 283 282 283 284 286 286 286 286 286 286
Wind_Speed
6 5 5 4 5 5 4 4 4 4 4 3 5 5 9 7 8 5 3 3 4 1 3 3 1 3 5 5 4 5 5 6 7 3 3 4 3 5 6 6 4 3 2 2 3 5 5 5 4 4 4 4 5 5 5 5 5 6 7 7 8 7 8 9 8 10 11 12 12 12 12 11 11 11
6 6 6 5 5 3 4 3 4 6 7 7 6 5 5 8 8 6 6 2 0 3 0 1 3 2 4 5 4 4 5 9 10 4 5 4 4 8 8 8 7 6 5 4 4 4 5 5 4 3 2 2 2 3 4 4 5 5 6 6 7 8 9 10 10 11 12 12 12 13 12 13 13 13
7 6 5 4 5 4 5 7 7 6 7 6 6 5 6 7 8 8 7 6 0 2 2 0 3 4 4 5 4 4 5 8 10 7 6 5 7 8 7 9 8 8 7 6 5 5 3 4 4 3 2 2 0 1 2 2 3 5 6 6 7 8 9 9 10 11 11 11 12 13 13 13 13 13
5 5 5 5 5 4 5 7 7 7 6 7 8 7 7 7 6 7 6 7 4 1 4 4 4 5 5 5 4 4 3 4 7 5 6 5 7 5 3 6 7 8 8 6 5 5 5 3 2 2 2 2 1 1 1 0 2 3 3 4 6 7 8 8 9 9 9 9 10 11 12 13 13 13
4 4 4 4 3 3 5 4 5 6 6 7 8 6 7 7 6 8 6 7 5 1 1 4 4 5 6 4 4 5 4 4 4 4 3 5 5 4 3 3 6 8 7 5 6 6 7 7 3 3 2 1 1 1 2 1 1 2 3 2 4 5 6 7 7 7 7 8 8 9 9 11 12 13
4 5 5 5 4 4 6 5 5 5 7 7 8 7 6 6 4 4 5 4 5 5 1 1 1 3 3 6 4 6 5 6 4 4 3 4 3 2 3 4 4 9 8 7 7 8 8 8 7 5 5 3 3 3 2 2 3 3 4 3 3 3 4 4 4 6 7 7 8 8 9 10 11 12
4 5 5 4 4 5 7 5 5 7 6 5 7 6 6 6 5 4 7 6 4 7 4 4 3 3 2 5 8 5 5 4 2 4 1 3 3 3 4 4 3 7 9 9 9 10 10 9 8 7 7 6 5 5 5 4 4 5 5 5 5 4 3 2 2 3 5 6 7 8 9 10 11 12
5 5 5 4 5 5 6 5 5 4 4 5 6 6 5 6 7 5 4 5 6 4 6 3 6 4 4 4 2 3 3 3 1 2 4 5 4 3 3 4 3 6 10 11 11 11 10 9 8 8 8 8 8 8 7 7 5 5 6 7 6 6 5 5 4 2 0 3 4 6 7 8 10 11
5 4 4 4 4 4 5 4 5 5 5 4 4 4 5 6 5 5 5 4 4 5 5 5 5 3 3 4 2 4 5 0 4 1 3 3 3 3 3 4 3 2 7 8 9 10 10 8 9 10 10 10 10 11 10 9 7 7 7 7 6 6 5 5 4 2 1 2 3 4 5 7 8 10
6 5 5 4 4 4 5 4 4 5 5 4 4 4 4 4 4 4 4 5 4 6 6 6 5 1 4 0 1 3 4 6 3 1 1 3 3 4 5 4 3 2 1 0 2 5 6 8 9 10 10 10 11 12 12 10 8 8 8 8 7 7 6 5 4 3 4 5 6 5 6 6 6 8
6 6 5 5 4 4 4 5 6 6 5 5 5 4 3 2 4 4 2 3 3 3 4 2 4 4 2 2 3 1 4 4 3 2 2 4 4 3 3 3 3 2 4 3 2 5 4 4 4 9 13 14 14 14 13 10 7 8 8 8 8 8 6 5 4 5 5 6 6 7 6 7 7 8
5 6 5 4 4 5 5 6 5 6 6 5 5 2 3 4 4 3 2 3 3 2 2 1 1 1 3 1 1 3 5 5 5 4 2 3 2 4 2 1 2 3 5 4 5 5 7 8 10 10 10 12 13 12 10 9 4 5 8 9 9 8 7 6 6 7 7 7 7 7 6 6 8 10
5 4 4 4 4 5 7 8 6 5 5 6 6 2 3 4 5 4 4 3 4 3 5 5 3 4 3 3 5 6 5 4 3 1 2 2 1 2 3 5 2 3 3 4 5 5 5 6 6 6 6 7 7 8 9 6 2 6 8 9 9 8 7 7 8 9 9 8 8 8 6 5 7 9
5 6 4 4 9 11 11 11 10 10 8 6 6 5 4 5 5 5 4 3 4 4 4 3 3 5 4 3 4 4 1 1 1 4 4 4 4 3 4 1 2 4 7 7 7 5 4 3 6 6 6 6 6 5 4 4 4 3 7 8 9 9 9 9 9 10 10 10 9 9 6 6 7 9
4 4 4 4 7 9 9 9 12 11 10 9 9 8 6 2 5 6 5 3 3 3 3 2 5 6 5 2 2 4 3 1 3 2 1 2 4 5 4 7 6 2 6 5 6 7 5 2 6 6 6 6 6 6 4 6 6 5 5 7 8 9 10 10 10 11 12 10 9 9 6 6 8 10
4 5 6 4 5 5 6 7 7 8 9 10 9 8 8 9 7 3 6 5 3 3 4 4 4 6 6 4 3 2 1 2 3 3 4 4 4 4 3 2 4 5 3 4 5 8 6 3 4 5 7 6 5 4 5 8 7 6 5 6 8 9 9 10 11 12 13 9 10 9 7 7 9 10
5 5 5 4 4 6 9 7 7 7 6 7 10 10 9 6 8 9 8 6 7 6 6 5 3 3 4 4 1 1 2 2 4 2 5 3 3 2 2 3 3 7 4 4 3 4 7 4 4 5 7 5 4 5 8 13 16 18 14 11 10 9 9 9 11 13 13 11 11 11 9 8 10 10
6 5 6 5 5 4 4 5 7 7 7 6 6 5 4 4 3 5 7 7 5 4 5 6 4 1 3 5 2 1 1 3 2 3 3 2 2 2 3 3 4 6 5 4 2 2 5 4 3 4 6 4 5 5 10 15 17 17 18 17 15 11 9 10 12 13 13 12 12 12 12 11 11 12
8 7 6 6 6 5 4 6 7 7 7 6 5 4 4 3 3 3 3 3 3 4 5 7 7 6 6 6 5 4 4 6 4 3 2 0 0 1 1 3 2 5 4 5 3 2 3 5 7 7 7 7 7 6 7 13 14 15 15 15 14 14 13 11 11 12 12 12 12 12 12 11 11 10
8 7 7 6 7 6 7 9 13 10 8 7 6 5 4 4 3 3 2 3 2 6 7 7 7 6 5 7 6 5 6 5 4 3 3 4 4 5 6 3 4 2 3 7 5 2 3 5 5 6 5 6 7 5 6 8 12 12 13 13 14 14 14 14 13 12 12 12 11 11 12 11 10 8
6 6 6 6 6 6 7 9 13 13 12 7 7 6 5 4 4 4 2 6 8 10 11 11 11 11 10 10 10 9 9 6 5 5 5 2 1 5 4 3 2 3 3 6 3 1 3 5 4 6 5 5 5 4 6 5 10 14 14 13 13 13 14 14 13 12 12 12 11 10 10 9 8 8
6 7 10 5 6 7 7 11 14 14 12 8 8 7 7 6 4 3 3 4 4 6 9 9 8 8 8 9 8 8 8 8 5 2 2 1 3 4 2 3 2 5 2 3 2 4 2 3 5 5 4 3 3 3 6 7 8 10 9 10 10 11 12 12 11 12 13 12 10 9 8 8 6 5
6 6 7 11 8 7 7 12 14 14 11 8 8 9 9 9 8 7 7 7 5 3 4 3 3 2 3 3 3 3 6 5 4 3 4 3 5 3 3 3 2 4 2 2 4 6 4 5 5 4 5 3 4 2 5 4 5 5 5 5 5 10 11 10 10 12 13 11 10 9 7 7 5 3
5 7 7 7 7 8 7 11 13 14 11 7 7 7 8 8 8 6 5 4 6 4 4 4 2 1 1 1 0 2 3 2 1 3 4 5 5 5 2 1 2 1 2 2 3 3 2 1 4 1 1 3 5 3 3 4 4 5 5 5 5 7 8 8 8 10 11 10 11 10 8 8 8 4
8 6 5 3 9 13 12 13 14 12 8 7 7 8 8 8 7 9 6 5 7 5 4 3 2 1 3 1 1 1 2 2 2 3 3 2 4 3 1 2 2 3 4 4 2 3 2 2 4 2 2 1 4 5 3 5 5 4 4 4 6 6 4 6 4 6 7 10 11 10 9 9 9 6
7 7 6 6 9 14 14 13 13 12 11 10 7 6 9 13 16 9 7 6 5 5 3 4 4 2 2 2 4 4 3 4 3 3 3 3 3 2 3 2 1 2 4 5 3 0 1 3 2 4 4 4 5 3 6 4 5 5 3 4 4 6 5 5 5 5 6 6 6 6 7 9 8 8
6 5 6 5 8 10 13 13 13 12 12 9 8 12 15 15 15 11 7 6 6 5 4 6 4 2 4 7 6 6 6 4 3 3 2 1 1 1 2 2 2 2 4 3 2 1 1 3 2 4 6 4 6 5 5 5 5 3 5 5 4 5 4 3 6 6 6 6 6 7 7 7 8 10
8 7 6 6 11 14 15 15 14 14 12 10 12 13 14 13 10 7 7 7 6 5 5 4 2 5 4 6 5 3 4 4 2 2 1 1 1 1 5 5 4 2 3 4 4 5 4 3 4 4 4 6 7 7 8 4 5 5 7 6 5 5 4 4 5 5 5 5 5 5 5 5 5 5
8 11 14 12 13 14 15 16 14 11 12 14 12 12 12 10 6 7 7 6 6 6 4 4 6 6 5 5 4 2 2 2 3 4 6 6 6 4 4 2 1 2 2 3 4 4 4 4 5 5 4 3 5 5 5 7 6 6 5 7 8 4 5 6 4 5 6 4 4 5 5 5 5 5
11 14 15 15 15 15 13 11 9 7 8 11 12 12 10 6 7 7 7 6 7 7 7 7 6 4 2 2 2 4 5 9 7 5 5 6 6 4 4 6 6 5 4 5 6 6 6 6 5 5 5 5 4 6 6 7 7 6 5 5 7 7 3 2 5 5 4 4 5 6 5 5 5 5
10 13 13 10 11 10 12 12 11 11 9 9 8 7 7 7 7 7 7 7 7 6 7 5 5 3 3 3 6 7 7 6 4 4 4 4 3 4 3 4 5 6 6 5 5 4 4 5 6 5 6 6 6 6 6 6 7 7 7 5 5 7 7 6 5 5 4 4 5 5 5 5 6 4
11 10 8 10 8 10 9 8 7 6 6 7 8 8 7 7 7 8 9 8 7 6 6 4 3 4 6 6 5 6 6 5 4 3 4 2 3 3 4 5 5 5 5 5 5 6 6 6 6 6 6 6 7 7 6 5 6 7 8 6 5 6 5 6 6 5 4 4 5 5 6 6 6 6
8 9 10 8 7 8 9 8 7 7 7 6 6 6 6 6 6 7 7 7 7 6 6 6 7 4 5 4 4 4 5 3 2 1 3 2 4 3 4 3 4 5 6 6 6 7 6 6 6 6 6 6 6 7 7 7 6 5 6 7 6 6 5 5 4 5 4 4 5 6 7 7 6 6
11 8 9 8 9 8 8 8 7 7 7 7 6 6 6 6 7 7 7 7 7 7 6 5 6 4 4 2 4 4 4 2 2 3 4 1 1 3 2 3 5 5 5 5 5 6 6 5 6 6 5 5 4 5 6 6 7 6 5 5 5 6 5 5 5 5 4 3 5 7 7 7 7 6
9 8 8 8 7 8 8 8 7 7 7 7 7 7 6 6 8 7 7 7 6 6 7 5 4 4 2 1 2 3 2 1 1 3 2 1 1 1 1 3 4 4 4 5 5 5 5 6 6 7 7 6 6 3 5 7 5 5 5 4 4 6 7 6 6 6 5 5 4 7 8 7 6 5
8 7 9 9 8 8 8 7 6 6 7 7 7 7 6 7 7 8 7 6 7 6 6 6 4 3 4 3 3 2 3 3 3 1 1 1 2 4 2 2 3 4 3 5 6 5 5 6 5 6 7 7 6 7 4 5 3 1 7 7 6 6 6 6 5 5 6 6 5 4 6 7 8 8
6 7 7 10 8 9 8 7 7 6 7 6 6 6 7 7 6 7 6 6 7 6 7 6 3 1 5 3 2 3 3 3 1 2 0 1 1 1 1 3 3 3 4 6 5 5 4 5 5 5 6 6 7 9 7 3 5 5 5 5 6 7 7 7 6 7 6 4 5 3 5 6 8 8
7 5 9 8 10 8 7 6 7 6 6 6 6 7 7 7 7 6 5 7 7 7 5 3 2 2 4 3 3 2 3 2 1 1 0 1 2 1 2 4 4 5 5 6 5 5 5 4 4 4 4 6 7 8 9 6 7 3 3 2 5 8 6 5 6 5 6 3 3 5 5 6 7 7
8 6 4 3 6 8 7 6 7 7 7 6 6 6 6 6 7 6 7 7 7 7 5 3 1 1 1 3 2 4 3 2 1 1 4 4 2 1 2 2 5 5 5 6 6 6 4 4 4 4 4 5 6 7 6 7 8 9 9 7 4 6 5 3 5 4 4 5 6 6 5 6 8 10
8 9 11 8 6 5 6 7 6 7 7 7 7 7 8 7 7 7 7 7 6 5 4 2 1 4 6 7 4 3 4 5 6 5 2 1 0 2 2 4 5 5 5 6 6 6 5 5 5 5 5 6 6 6 5 6 7 7 7 6 3 5 4 2 1 3 4 3 5 6 7 6 6 5
6 7 6 6 6 6 7 7 7 7 7 7 7 7 8 8 8 7 7 7 6 6 5 5 7 5 6 4 5 7 6 4 3 2 1 1 2 3 4 4 4 4 4 6 6 6 6 6 7 9 7 5 5 3 3 4 6 7 7 3 3 5 3 2 2 3 1 3 4 5 5 6 5 5
6 8 8 7 5 6 7 8 8 8 8 7 7 7 7 7 7 9 8 7 7 6 7 7 5 4 3 2 4 5 6 4 3 1 1 2 3 4 5 4 4 5 4 5 6 6 7 6 6 5 5 3 3 2 4 5 6 7 6 3 0 3 4 7 7 4 2 2 4 4 3 4 3 3
2 1 4 7 7 5 7 8 9 9 7 7 7 7 7 7 7 7 6 7 7 7 7 5 4 4 4 4 4 2 6 2 2 3 2 2 3 4 4 5 4 5 5 5 6 6 6 6 5 5 4 3 3 3 5 6 6 6 6 5 3 1 1 3 4 5 2 5 4 2 1 2 3 4
4 5 1 6 7 7 7 8 9 8 8 7 7 7 6 6 6 6 7 7 8 7 6 6 4 4 4 4 3 2 1 2 4 2 1 3 4 4 4 5 5 5 5 5 6 6 6 5 5 4 4 4 3 2 5 5 6 5 4 4 1 1 1 1 1 4 5 2 5 5 5 3 4 8
4 5 2 4 6 6 7 7 8 7 7 7 8 8 8 8 7 7 7 7 7 6 6 5 5 4 4 5 4 6 2 2 2 1 2 4 4 5 5 4 4 5 5 5 5 6 6 5 5 4 3 4 3 3 5 5 5 5 4 0 0 0 0 0 0 1 2 3 5 7 6 5 5 6
Wind_Direction
116 111 122 135 139 158 166 170 166 158 159 145 139 180 152 155 137 146 126 152 130 143 122 128 245 156 144 154 169 153 172 180 183 179 175 175 194 187 158 158 163 172 181 185 167 154 136 119 97 79 58 42 35 29 24 31 34 35 31 27 24 21 27 19 6 8 7 9 7 6 4 359 358 354
100 101 97 106 100 110 108 125 125 122 135 117 121 154 164 147 147 148 132 126 149 154 300 111 154 193 139 159 172 173 188 190 188 201 188 183 200 190 180 176 177 182 190 207 209 189 162 144 138 130 112 78 42 20 10 11 19 27 36 29 24 27 29 23 14 12 13 9 7 6 4 359 356 353
96 94 86 78 84 91 92 93 96 97 93 100 100 91 118 135 137 136 130 112 296 130 127 24 144 151 166 161 173 186 192 190 192 197 188 195 193 183 194 184 184 185 197 206 221 228 215 154 144 148 165 138 110 52 358 358 14 17 25 23 26 30 33 28 20 19 18 13 8 4 0 358 355 351
92 93 89 89 109 98 84 83 89 90 87 89 82 78 87 100 107 111 103 112 134 212 152 150 157 161 150 163 160 199 200 217 194 185 188 183 173 186 196 203 196 204 203 209 226 256 263 245 150 161 150 151 212 151 180 357 63 55 43 28 27 30 33 33 29 26 24 16 12 5 358 354 351 347
91 83 86 82 68 66 76 80 81 86 90 78 78 79 86 95 113 114 113 118 132 51 134 141 161 153 139 188 190 183 211 221 240 248 210 157 180 194 181 199 220 221 223 218 236 256 264 261 239 233 212 203 230 185 173 177 135 120 104 85 67 47 34 33 30 20 16 15 13 7 360 353 347 342
93 97 88 73 63 61 71 60 65 79 77 87 91 94 100 102 103 117 105 131 131 152 120 85 251 177 138 169 199 187 198 233 229 220 222 165 181 182 165 187 218 228 231 228 242 250 257 261 259 255 260 239 254 275 234 201 190 158 147 147 124 81 58 35 16 8 5 3 3 0 358 350 343 342
102 82 83 79 73 65 71 73 88 93 98 102 104 112 110 110 124 140 137 135 138 152 185 193 176 207 189 167 206 210 194 212 209 214 165 121 175 174 180 191 222 218 222 227 236 247 254 259 265 269 276 273 263 264 261 245 213 175 161 168 160 148 137 132 20 6 351 357 354 353 352 344 338 341
100 104 87 84 89 93 94 93 87 82 103 113 124 117 119 112 122 144 153 143 136 168 146 220 177 218 183 247 229 201 213 170 197 352 70 91 103 138 180 188 208 207 207 223 233 243 255 267 283 288 289 291 288 277 263 249 231 196 177 175 178 174 178 184 188 197 313 338 339 340 343 335 332 338
124 118 124 132 101 102 96 79 90 80 73 76 101 112 113 118 124 113 131 146 130 133 156 197 229 196 200 233 164 185 196 167 55 57 109 135 108 70 54 48 52 81 200 225 240 253 266 284 291 297 298 295 289 285 280 261 235 218 199 191 192 196 204 208 216 234 245 260 284 310 332 327 326 333
143 146 155 157 141 127 116 111 100 91 88 74 80 105 108 116 113 102 111 118 133 145 170 176 213 253 190 133 255 194 148 121 116 40 38 43 42 61 35 14 354 341 44 67 261 261 265 265 282 291 291 287 289 295 296 286 247 220 211 203 199 201 214 226 248 280 292 299 300 306 327 327 321 324
151 156 161 166 144 131 115 116 120 113 100 97 88 101 114 113 103 103 94 97 105 126 142 182 206 200 229 157 123 82 124 120 123 136 45 31 354 22 48 3 331 338 18 44 33 49 38 334 314 329 338 331 321 318 317 305 259 223 218 215 209 207 212 223 239 256 266 279 289 300 311 329 320 314
151 159 164 156 145 136 141 133 135 125 131 123 102 82 111 120 97 84 86 74 87 96 77 86 224 267 212 56 51 31 47 63 18 23 121 108 1 348 322 296 305 338 51 19 3 18 13 356 346 339 319 313 315 317 326 328 311 227 219 219 219 212 211 224 241 249 256 259 264 270 288 308 310 309
143 131 130 132 144 145 141 131 118 116 133 129 115 118 116 127 121 116 102 117 91 66 77 44 33 53 31 359 52 49 42 79 112 316 71 85 306 308 16 321 26 50 39 351 11 7 359 335 326 323 316 303 307 325 337 328 302 221 221 223 225 222 219 226 237 246 251 255 256 260 267 281 292 298
150 136 129 140 140 141 132 122 117 112 107 116 125 154 139 148 137 136 124 113 123 122 110 127 105 78 63 76 97 104 112 69 44 44 37 39 323 357 358 330 340 10 25 350 341 335 314 330 307 310 303 296 313 320 318 314 317 259 227 227 226 225 223 228 238 245 251 251 253 257 262 270 277 282
142 122 135 137 133 130 131 134 134 126 113 97 87 84 88 114 158 144 119 124 132 124 104 128 114 122 120 116 135 135 138 60 93 101 113 94 43 46 24 331 317 343 32 343 335 321 314 344 307 303 298 301 309 321 327 351 348 312 260 240 233 229 228 234 242 249 254 252 256 262 266 269 279 284
133 149 149 155 143 145 146 144 126 120 121 121 115 110 102 91 62 118 148 146 104 111 109 100 128 132 149 163 163 165 117 119 74 56 75 64 65 37 21 313 308 278 24 355 329 308 306 336 310 317 307 312 327 309 22 29 13 342 300 264 250 242 240 246 254 264 268 269 265 272 273 270 274 280
144 158 130 131 167 164 166 154 148 143 135 134 136 129 116 101 112 99 96 118 139 147 122 127 134 149 154 128 120 180 157 128 93 65 61 49 46 57 3 286 294 309 337 356 322 315 305 325 327 327 307 330 333 0 5 2 8 17 5 337 309 293 283 276 276 279 288 296 290 287 286 279 278 282
168 165 145 174 202 210 177 169 161 154 150 147 136 136 129 123 105 93 99 103 104 103 129 131 124 351 121 122 129 39 106 97 92 73 52 53 46 352 291 265 278 288 342 347 322 334 307 332 351 332 318 339 6 1 1 19 35 35 30 24 13 350 309 288 286 292 301 304 299 294 294 291 288 290
177 187 186 184 204 201 197 197 180 164 156 149 150 148 144 134 132 101 79 84 115 110 109 115 119 117 109 121 134 122 106 111 130 142 147 175 185 246 299 347 340 323 10 20 41 349 303 354 12 354 344 345 342 342 14 32 39 37 29 18 7 358 351 339 326 321 318 314 306 299 295 290 290 304
179 192 192 197 207 213 203 204 186 164 152 157 157 154 142 115 89 66 9 341 91 119 123 125 128 133 138 141 141 138 124 121 123 94 61 57 48 44 27 347 328 323 343 28 38 348 339 0 17 336 333 351 343 348 24 16 39 31 22 9 360 356 358 354 346 338 334 328 319 311 306 304 306 312
184 193 203 194 205 211 216 194 179 162 151 152 155 158 157 139 115 114 83 56 76 102 112 120 128 135 137 137 134 132 139 142 144 93 65 37 78 52 26 326 352 308 19 7 15 6 5 342 1 338 340 342 322 351 8 6 15 11 7 360 356 357 353 347 346 349 346 338 333 331 329 327 320 307
202 201 201 210 207 212 213 182 172 163 157 159 163 161 143 129 140 162 156 114 83 93 101 111 126 135 136 135 140 144 140 134 112 105 104 183 91 43 55 326 306 306 41 1 324 47 314 327 354 356 321 344 322 355 6 8 358 358 347 342 345 343 339 337 343 346 341 340 345 351 348 337 326 313
175 194 211 221 219 223 214 168 174 172 170 164 167 167 151 159 168 181 167 146 135 144 111 92 113 102 122 137 150 154 123 115 106 106 135 98 75 67 30 27 343 358 307 302 16 24 314 26 332 18 345 337 288 7 2 337 328 325 323 322 327 326 330 333 335 335 330 335 343 348 350 340 338 311
185 194 204 219 220 224 177 157 171 185 179 167 170 158 157 158 182 163 148 155 137 133 136 168 169 173 199 152 74 100 117 92 85 90 85 103 113 106 129 108 98 233 265 281 26 45 276 64 323 9 92 316 311 306 314 309 298 301 301 312 321 314 319 322 324 321 324 326 327 325 332 340 353 350
182 186 182 164 172 164 158 150 151 155 144 146 164 168 169 183 154 139 136 149 137 134 142 153 160 42 33 343 306 27 80 113 121 98 93 129 137 138 91 33 343 277 259 259 331 47 307 307 298 327 304 224 261 304 288 297 289 281 274 292 310 302 307 304 314 316 315 317 319 319 323 335 341 351
179 178 172 181 182 162 148 144 142 137 135 131 124 146 141 131 130 136 134 134 133 136 109 80 53 66 84 40 48 81 104 125 134 146 170 184 169 159 155 158 200 249 283 287 318 251 321 315 273 307 288 296 281 265 304 292 276 270 276 289 281 284 295 307 322 317 319 314 312 305 312 330 335 327
157 135 155 138 130 127 124 118 114 114 113 105 116 125 123 127 128 126 124 120 107 93 90 91 97 67 58 84 84 83 88 103 134 156 170 198 146 171 207 184 174 211 252 275 274 320 3 277 271 292 292 279 289 296 277 304 304 293 309 287 287 283 285 310 319 315 314 313 307 314 326 325 320 315
144 124 110 144 153 136 127 124 126 128 122 123 126 114 114 113 116 115 117 114 115 103 92 90 59 51 77 95 94 120 156 167 173 177 180 167 130 88 34 23 4 340 322 333 338 339 337 299 293 276 272 294 301 306 307 275 269 292 304 298 282 278 289 309 305 308 305 308 315 323 327 322 312 317
151 152 142 147 137 127 122 120 113 108 112 114 108 106 101 102 98 103 105 105 94 88 86 86 86 89 97 124 150 156 92 73 64 61 37 35 35 32 52 27 351 330 321 325 339 329 316 296 288 294 296 283 287 292 296 300 306 301 301 315 317 311 310 299 295 302 309 310 311 314 311 305 310 322
132 129 133 139 129 123 124 118 118 120 121 116 112 101 94 82 89 94 97 89 88 95 101 94 95 108 99 66 92 80 65 60 58 63 47 37 16 20 22 12 349 337 332 340 343 336 332 326 317 319 315 301 290 297 299 304 301 295 297 296 294 300 259 293 309 304 298 309 314 315 303 296 301 322
128 136 139 149 142 124 123 118 123 124 127 112 101 96 96 100 102 105 107 113 109 108 103 99 100 99 84 62 42 35 64 76 58 80 83 60 2 16 7 26 341 342 333 345 342 337 334 324 322 322 314 310 305 295 294 288 293 302 298 293 304 303 310 313 302 300 300 307 308 303 303 307 308 306
142 134 129 128 124 118 110 113 109 110 116 117 112 106 107 110 108 102 98 84 87 94 111 113 91 45 44 49 41 60 76 79 70 60 77 76 14 358 17 24 343 333 326 327 325 324 328 317 313 312 306 305 301 301 299 289 289 296 297 299 296 290 297 304 310 311 311 312 315 310 303 306 304 302
138 131 136 140 139 124 125 117 119 122 112 101 97 101 103 100 103 102 92 95 101 110 86 82 88 79 64 38 39 63 74 69 98 123 74 64 76 359 47 26 325 333 328 321 318 315 312 310 305 299 297 299 295 295 300 303 293 285 292 304 309 303 304 302 302 303 312 324 311 312 311 308 298 290
146 153 156 161 145 135 123 124 126 128 121 104 88 93 99 101 95 90 99 108 112 96 102 105 92 92 78 30 32 62 77 23 10 9 79 37 75 66 39 5 315 298 298 305 311 302 306 307 313 309 303 293 280 274 275 280 289 290 296 310 310 308 304 302 299 298 312 302 311 310 305 302 295 288
134 168 167 151 135 130 128 130 139 134 124 124 121 114 114 110 107 106 112 120 109 103 98 96 103 96 84 46 80 117 148 124 16 32 19 85 75 55 316 286 290 303 314 308 302 300 308 315 319 321 320 321 321 288 256 256 272 308 326 310 308 304 303 305 310 312 317 312 318 300 295 290 293 290
179 184 162 143 139 137 131 144 137 136 133 141 135 130 118 121 121 125 130 146 122 117 102 92 79 69 70 100 150 170 152 130 120 136 8 13 349 321 323 308 285 286 291 290 294 299 307 309 318 321 322 320 323 318 324 321 49 39 330 318 313 301 300 304 307 306 307 302 297 290 293 306 307 308
171 198 157 135 141 141 146 150 151 148 146 143 143 138 137 139 141 139 147 132 109 116 122 116 122 117 129 168 166 166 151 130 174 207 261 321 15 47 347 299 296 292 306 290 286 293 296 303 309 312 313 311 320 318 308 312 305 293 280 294 304 307 303 309 316 311 296 281 290 296 303 304 303 306
178 186 143 151 145 153 146 143 142 144 146 147 145 138 136 140 133 119 108 93 98 95 90 108 128 129 185 198 170 166 196 217 148 170 242 91 78 18 300 284 306 303 290 292 295 291 287 286 295 298 303 310 314 313 312 322 322 288 178 274 286 293 300 304 303 297 306 310 308 309 312 295 293 301
170 166 132 123 141 143 140 143 145 146 144 141 138 134 130 122 113 109 105 107 105 102 104 92 78 89 248 274 191 164 185 170 160 41 62 74 79 6 288 309 309 297 308 304 299 289 290 289 289 288 290 299 299 298 295 305 296 295 307 311 264 270 271 251 273 295 308 328 321 308 276 254 264 272
180 151 149 156 155 134 130 130 133 135 131 133 128 129 127 124 118 116 112 115 114 111 112 117 54 49 53 48 47 42 51 62 74 97 107 101 225 243 295 304 284 288 303 296 301 302 301 294 295 294 288 273 272 272 282 274 268 281 279 299 261 232 251 270 303 330 327 335 314 316 323 332 349 344
132 117 130 141 143 139 132 130 126 118 117 114 110 112 115 122 120 122 126 121 111 100 90 77 83 86 81 75 72 92 99 108 112 131 177 218 278 312 298 278 288 280 283 292 293 298 300 294 289 286 279 274 276 305 294 297 303 304 311 298 347 19 38 56 94 78 2 304 315 318 325 328 332 331
79 86 73 77 106 145 128 120 115 112 112 113 112 116 117 120 129 133 126 112 91 88 77 82 94 97 94 92 105 116 125 142 163 202 262 321 324 295 283 277 282 295 288 289 293 289 287 296 298 298 292 298 304 292 278 281 280 288 290 300 299 356 65 91 93 105 111 341 349 348 334 320 338 335
39 36 110 136 150 142 122 117 115 114 114 113 118 122 121 124 123 120 111 101 98 90 99 102 95 78 53 25 30 114 153 168 125 45 346 298 267 273 283 289 282 281 276 278 282 283 292 298 305 304 299 288 242 198 263 274 275 278 289 305 287 217 27 96 134 135 87 56 48 28 304 301 322 329
77 40 158 157 132 124 114 117 118 119 120 118 116 111 114 110 102 107 108 111 106 107 105 95 84 66 36 14 14 24 64 143 115 141 255 285 279 284 289 290 294 294 288 287 295 299 299 301 298 292 297 283 257 246 264 276 287 278 276 272 308 126 284 254 288 297 291 287 30 26 10 334 263 272
78 46 85 135 122 121 116 114 115 116 109 97 89 92 93 92 93 94 91 96 101 105 101 99 83 55 27 21 48 77 88 146 160 213 253 272 288 286 284 282 288 291 294 295 302 304 307 309 304 293 257 267 259 249 267 253 267 291 293 206 45 226 272 147 44 310 333 347 10 17 14 10 4 4